KI5QWQ Weather Reports


time (UTC)temp
F
wind
direction
speed
knots
gust
knots
rain 1hr
in
rain 24hr
in
rain mn
in
humidity
%
barometer
mb
20260904092243 0 192 1.7 4.3 0.00 0.00 0.00 1016.1
20260904091739 0 209 0.0 2.6 0.00 0.00 0.00 1016.1
20260904091233 0 176 2.6 3.5 0.00 0.00 0.00 1016.1
20260904090729 0 220 1.7 3.5 0.00 0.00 0.00 1016.0
20260904090225 0 117 1.7 2.6 0.00 0.00 0.00 1016.1
20260904085725 0 196 1.7 2.6 0.00 0.00 0.00 1016.1
20260904085220 0 238 1.7 2.6 0.00 0.00 0.00 1016.3
20260904084714 0 195 2.6 3.5 0.00 0.00 0.00 1016.3
20260904084211 0 191 0.0 1.7 0.00 0.00 0.00 1016.2
20260904083707 0 190 0.0 2.6 0.00 0.00 0.00 1016.2
20260904083204 0 217 1.7 2.6 0.00 0.00 0.00 1016.2
20260904082703 0 219 1.7 3.5 0.00 0.00 0.00 1016.3
20260904082158 0 187 0.9 2.6 0.00 0.00 0.00 1016.1
20260904081654 0 136 1.7 3.5 0.00 0.00 0.00 1016.5
20260904081149 0 185 1.7 3.5 0.00 0.00 0.00 1016.4
20260904080644 0 188 0.0 2.6 0.00 0.00 0.00 1016.4
20260904080140 0 201 1.7 3.5 0.00 0.00 0.00 1016.3
20260904075637 0 240 1.7 5.2 0.00 0.00 0.00 1016.0
20260904075131 0 217 2.6 2.6 0.00 0.00 0.00 1016.0
20260904074625 0 218 1.7 7.8 0.00 0.00 0.00 1016.1
20260904074120 0 226 0.9 7.0 0.00 0.00 0.00 1016.2
20260904073614 0 219 2.6 4.3 0.00 0.00 0.00 1016.3
20260904073111 0 203 2.6 6.1 0.00 0.00 0.00 1016.2
20260904072606 0 167 0.0 2.6 0.00 0.00 0.00 1016.2
20260904072101 0 158 1.7 2.6 0.00 0.00 0.00 1016.3
20260904071557 0 214 0.0 4.3 0.00 0.00 0.00 1016.5
20260904071052 0 220 1.7 2.6 0.00 0.00 0.00 1016.5
20260904070550 0 148 4.3 4.3 0.00 0.00 0.00 1016.5
20260904070046 0 215 2.6 5.2 0.00 0.00 0.00 1016.4
20260904065540 0 191 1.7 2.6 0.00 0.00 0.00 1016.7
20260904065037 0 139 2.6 4.3 0.00 0.00 0.00 1016.5
20260904064533 0 208 2.6 5.2 0.00 0.00 0.00 1016.5
20260904064026 0 176 1.7 3.5 0.00 0.00 0.00 1016.6
20260904063523 0 207 1.7 3.5 0.00 0.00 0.00 1016.7
20260904063018 0 163 2.6 4.3 0.00 0.00 0.00 1016.4
20260904062514 0 219 1.7 2.6 0.00 0.00 0.00 1016.5
20260904062010 0 191 0.9 5.2 0.00 0.00 0.00 1016.5
20260904061505 0 235 0.9 2.6 0.00 0.00 0.00 1016.5
20260904061002 0 226 0.9 2.6 0.00 0.00 0.00 1016.5
20260904060457 0 210 1.7 1.7 0.00 0.00 0.00 1016.6
20260904055953 0 140 3.5 6.1 0.00 0.00 0.00 1016.4
20260904055448 0 196 0.9 5.2 0.00 0.00 0.00 1016.4
20260904054944 0 262 1.7 4.3 0.00 0.00 0.00 1016.4
20260904054439 0 224 0.0 2.6 0.00 0.00 0.00 1016.4
20260904053935 0 218 0.9 2.6 0.00 0.00 0.00 1016.4
20260904053434 0 279 1.7 4.3 0.00 0.00 0.00 1016.4
20260904052930 0 205 3.5 7.0 0.00 0.00 0.00 1016.6
20260904052426 0 137 1.7 4.3 0.00 0.00 0.00 1016.3
20260904051922 0 189 1.7 7.0 0.00 0.00 0.00 1016.4
20260904051418 0 160 1.7 6.1 0.00 0.00 0.00 1016.3
20260904050912 0 141 1.7 4.3 0.00 0.00 0.00 1016.4
20260904050409 0 188 1.7 6.1 0.00 0.00 0.00 1016.3
20260904045908 0 202 3.5 6.1 0.00 0.00 0.00 1016.4
20260904045404 0 173 2.6 5.2 0.00 0.00 0.00 1016.3
20260904044903 0 196 1.7 5.2 0.00 0.00 0.00 1016.2
20260904044400 0 154 2.6 5.2 0.00 0.00 0.00 1016.3
20260904043856 0 206 1.7 4.3 0.00 0.00 0.00 1016.3
20260904043352 0 181 1.7 3.5 0.00 0.00 0.00 1016.4
20260904042848 0 179 0.9 3.5 0.00 0.00 0.00 1016.4
20260904042343 0 184 1.7 3.5 0.00 0.00 0.00 1016.4
20260904041838 0 201 2.6 3.5 0.00 0.00 0.00 1016.3
20260904041334 0 212 1.7 2.6 0.00 0.00 0.00 1016.2
20260904040830 0 166 2.6 6.1 0.00 0.00 0.00 1016.2
20260904040325 0 156 5.2 8.7 0.00 0.00 0.00 1016.3
20260904035821 0 173 1.7 2.6 0.00 0.00 0.00 1016.4
20260904035317 0 182 2.6 3.5 0.00 0.00 0.00 1016.4
20260904034815 0 195 1.7 2.6 0.00 0.00 0.00 1016.0
20260904034311 0 166 2.6 4.3 0.00 0.00 0.00 1016.0
20260904033807 0 219 1.7 4.3 0.00 0.00 0.00 1016.0
20260904033304 0 143 2.6 7.0 0.00 0.00 0.00 1016.0
20260904032759 0 143 2.6 7.0 0.00 0.00 0.00 1016.1
20260904032259 0 200 3.5 3.5 0.00 0.00 0.00 1015.9
20260904031753 0 125 4.3 6.1 0.00 0.00 0.00 1016.0
20260904031249 0 160 0.9 4.3 0.00 0.00 0.00 1015.8
20260904030744 0 186 2.6 2.6 0.00 0.00 0.00 1015.8
20260904030239 0 174 4.3 6.1 0.00 0.00 0.00 1015.8
20260904025736 0 195 1.7 2.6 0.00 0.00 0.00 1015.8
20260904025230 0 190 1.7 2.6 0.00 0.00 0.00 1015.8
20260904024720 0 177 2.6 4.3 0.00 0.00 0.00 1015.8
20260904024216 0 119 1.7 5.2 0.00 0.00 0.00 1015.7
20260904023712 0 155 1.7 2.6 0.00 0.00 0.00 1015.7
20260904023207 0 186 4.3 7.8 0.00 0.00 0.00 1015.5
20260904022701 0 165 1.7 1.7 0.00 0.00 0.00 1015.5
20260904022158 0 135 1.7 3.5 0.00 0.00 0.00 1015.6
20260904021654 0 199 1.7 3.5 0.00 0.00 0.00 1015.0
20260904021148 0 202 0.9 2.6 0.00 0.00 0.00 1015.0
20260904020645 0 168 1.7 3.5 0.00 0.00 0.00 1015.0
20260904020139 0 139 1.7 4.3 0.00 0.00 0.00 1015.0
20260904015638 0 139 1.7 4.3 0.00 0.00 0.00 1015.0
20260904015137 0 171 1.7 4.3 0.00 0.00 0.00 1015.0
20260904014636 0 211 1.7 6.1 0.00 0.00 0.00 1014.9
20260904014132 0 156 2.6 6.1 0.00 0.00 0.00 1014.9
20260904013629 0 174 2.6 7.0 0.00 0.00 0.00 1015.0
20260904013124 0 157 3.5 7.0 0.00 0.00 0.00 1015.0
20260904012620 0 191 3.5 7.0 0.00 0.00 0.00 1015.0
20260904012119 0 203 0.0 2.6 0.00 0.00 0.00 1014.8
20260904011618 0 183 1.7 2.6 0.00 0.00 0.00 1014.8
20260904011114 0 139 2.6 3.5 0.00 0.00 0.00 1014.8
20260904010609 0 152 2.6 4.3 0.00 0.00 0.00 1014.7
20260904010106 0 77 0.0 6.1 0.00 0.00 0.00 1014.7
20260904005600 0 205 0.9 8.7 0.00 0.00 0.00 1014.5
20260904005055 0 132 3.5 4.3 0.00 0.00 0.00 1014.5
20260904004551 0 182 2.6 7.8 0.00 0.00 0.00 1014.8
20260904004046 0 144 2.6 4.3 0.00 0.00 0.00 1014.7
20260904003542 0 173 0.0 6.1 0.00 0.00 0.00 1014.6
20260904003038 0 180 2.6 7.8 0.00 0.00 0.00 1014.6
20260904002533 0 189 2.6 11.3 0.00 0.00 0.00 1014.6
20260904002033 0 185 1.7 7.0 0.00 0.00 0.00 1014.4
20260904001529 0 168 1.7 7.0 0.00 0.00 0.00 1014.6
20260904001028 0 190 1.7 9.6 0.00 0.00 0.00 1014.5
20260904000527 0 194 3.5 7.8 0.00 0.00 0.00 1014.4
20260904000024 0 187 2.6 5.2 0.00 0.00 0.00 1014.3
20260903235518 0 165 1.7 7.0 0.00 0.00 0.00 1014.5
20260903235014 0 186 3.5 7.8 0.00 0.00 0.00 1014.4
20260903234509 0 169 2.6 7.8 0.00 0.00 0.00 1014.6
20260903234005 0 143 1.7 7.8 0.00 0.00 0.00 1014.3
20260903233501 0 186 2.6 7.0 0.00 0.00 0.00 1014.2
20260903232955 0 133 5.2 8.7 0.00 0.00 0.00 1014.1
20260903232451 0 196 2.6 9.6 0.00 0.00 0.00 1014.1
20260903231950 0 160 3.5 7.8 0.00 0.00 0.00 1014.2
20260903231445 0 179 2.6 11.3 0.00 0.00 0.00 1014.2
20260903230940 0 163 0.9 8.7 0.00 0.00 0.00 1013.9
20260903230436 0 117 4.3 7.0 0.00 0.00 0.00 1014.0
20260903225932 0 191 3.5 10.4 0.00 0.00 0.00 1014.0
20260903225427 0 158 1.7 7.0 0.00 0.00 0.00 1013.8
20260903224924 0 156 3.5 4.3 0.00 0.00 0.00 1013.6
20260903224419 0 171 2.6 5.2 0.00 0.00 0.00 1013.6
20260903223915 0 187 3.5 7.0 0.00 0.00 0.00 1013.6
20260903223414 0 128 3.5 3.5 0.00 0.00 0.00 1013.7
20260903222913 0 232 3.5 5.2 0.00 0.00 0.00 1013.6
20260903222409 0 165 1.7 2.6 0.00 0.00 0.00 1013.8
20260903221903 0 180 2.6 4.3 0.00 0.00 0.00 1013.7
20260903221401 0 162 3.5 7.8 0.00 0.00 0.00 1013.7
20260903220900 0 114 1.7 6.1 0.00 0.00 0.00 1013.6
20260903220349 0 128 3.5 6.1 0.00 0.00 0.00 1013.6
20260903215847 0 128 3.5 6.1 0.00 0.00 0.00 1013.6
20260903215343 0 145 1.7 3.5 0.00 0.00 0.00 1013.6
20260903214841 0 145 1.7 3.5 0.00 0.00 0.00 1013.6
20260903214332 0 145 1.7 3.5 0.00 0.00 0.00 1013.6
20260903213826 0 166 3.5 7.0 0.00 0.00 0.00 1013.8
20260903213321 0 180 3.5 4.3 0.00 0.00 0.00 1013.8
20260903212817 0 193 3.5 4.3 0.00 0.00 0.00 1013.8
20260903212314 0 193 3.5 4.3 0.00 0.00 0.00 1013.8
20260903211813 0 193 3.5 4.3 0.00 0.00 0.00 1013.8
20260903211309 0 193 3.5 4.3 0.00 0.00 0.00 1013.8
20260903210805 0 193 3.5 4.3 0.00 0.00 0.00 1013.9
20260903210300 0 193 3.5 4.3 0.00 0.00 0.00 1013.9
20260903205800 0 193 1.7 3.5 0.00 0.00 0.00 1014.0
20260903205300 0 193 1.7 3.5 0.00 0.00 0.00 1014.0
20260903204800 0 193 1.7 3.5 0.00 0.00 0.00 1014.2
20260903204256 0 193 1.7 3.5 0.00 0.00 0.00 1014.0
20260903203751 0 193 1.7 3.5 0.00 0.00 0.00 1014.2
20260903203247 0 216 0.0 2.6 0.00 0.00 0.00 1014.5
20260903202745 0 216 0.0 2.6 0.00 0.00 0.00 1014.6
20260903202243 0 216 0.0 2.6 0.00 0.00 0.00 1014.5
20260903201741 0 216 0.0 2.6 0.00 0.00 0.00 1014.5
20260903201237 0 216 0.0 2.6 0.00 0.00 0.00 1014.8
20260903200735 0 216 0.0 2.6 0.00 0.00 0.00 1014.7
20260903200231 0 216 0.0 2.6 0.00 0.00 0.00 1014.8
20260903195726 0 216 0.0 2.6 0.00 0.00 0.00 1014.8
20260903195223 0 216 0.0 2.6 0.00 0.00 0.00 1014.8
20260903194722 0 209 2.6 4.3 0.00 0.00 0.00 1014.8
20260903194218 0 186 1.7 2.6 0.00 0.00 0.00 1014.8
20260903193713 0 228 1.7 2.6 0.00 0.00 0.00 1015.1
20260903193208 0 166 2.6 4.3 0.00 0.00 0.00 1015.0
20260903192705 0 166 2.6 4.3 0.00 0.00 0.00 1015.1
20260903192200 0 224 2.6 3.5 0.00 0.00 0.00 1015.2
20260903191656 0 230 0.9 2.6 0.00 0.00 0.00 1015.4
20260903191156 0 230 0.9 4.3 0.00 0.00 0.00 1015.4
20260903190651 0 190 1.7 2.6 0.00 0.00 0.00 1015.4
20260903190145 0 190 1.7 2.6 0.00 0.00 0.00 1015.6
20260903185640 0 190 1.7 2.6 0.00 0.00 0.00 1015.6
20260903185135 0 190 1.7 2.6 0.00 0.00 0.00 1015.6
20260903184632 0 190 1.7 2.6 0.00 0.00 0.00 1015.6
20260903184128 0 190 1.7 2.6 0.00 0.00 0.00 1015.7
20260903183626 0 190 1.7 2.6 0.00 0.00 0.00 1015.9
20260903183121 0 220 0.0 2.6 0.00 0.00 0.00 1016.0
20260903182621 0 212 0.9 1.7 0.00 0.00 0.00 1016.1
20260903182117 0 212 0.9 1.7 0.00 0.00 0.00 1016.1
20260903181614 0 181 1.7 3.5 0.00 0.00 0.00 1016.2
20260903181109 0 181 1.7 3.5 0.00 0.00 0.00 1016.1
20260903180604 0 181 1.7 3.5 0.00 0.00 0.00 1016.2
20260903180058 0 180 0.9 1.7 0.00 0.00 0.00 1016.2
20260903175552 0 186 1.7 2.6 0.00 0.00 0.00 1016.6
20260903175052 0 186 1.7 2.6 0.00 0.00 0.00 1016.5
20260903174547 0 176 1.7 5.2 0.00 0.00 0.00 1016.8
20260903174041 0 180 2.6 2.6 0.00 0.00 0.00 1016.7
20260903173535 0 180 2.6 2.6 0.00 0.00 0.00 1016.5
20260903173033 0 180 2.6 2.6 0.00 0.00 0.00 1017.0
20260903172527 0 154 1.7 4.3 0.00 0.00 0.00 1016.7
20260903172022 0 153 2.6 4.3 0.00 0.00 0.00 1017.0
20260903171517 0 153 2.6 4.3 0.00 0.00 0.00 1017.0
20260903171013 0 153 2.6 4.3 0.00 0.00 0.00 1017.0
20260903170512 0 155 2.6 3.5 0.00 0.00 0.00
20260903170007 0 155 2.6 3.5 0.00 0.00 0.00
20260903165505 0 179 0.0 2.6 0.00 0.00 0.00
20260903165001 0 145 2.6 4.3 0.00 0.00 0.00 1016.6
20260903164455 0 162 0.9 2.6 0.00 0.00 0.00 1016.6
20260903163955 0 162 0.9 2.6 0.00 0.00 0.00 1016.6
20260903163451 0 227 1.7 5.2 0.00 0.00 0.00 1016.6
20260903162946 0 237 2.6 4.3 0.00 0.00 0.00 1016.6
20260903162437 0 233 1.7 2.6 0.00 0.00 0.00 1016.6
20260903161933 0 230 2.6 4.3 0.00 0.00 0.00 1016.6
20260903161428 0 236 1.7 4.3 0.00 0.00 0.00 1016.6
20260903160924 0 227 2.6 3.5 0.00 0.00 0.00 1016.6
20260903160423 0 233 1.7 2.6 0.00 0.00 0.00 1016.6
20260903155921 0 205 0.0 1.7 0.00 0.00 0.00 1016.6
20260903155417 0 183 1.7 2.6 0.00 0.00 0.00 1016.6
20260903154913 0 220 1.7 2.6 0.00 0.00 0.00 1016.8
20260903154408 0 207 1.7 3.5 0.00 0.00 0.00 1016.5
20260903153903 0 293 0.9 1.7 0.00 0.00 0.00 1016.6
20260903153358 0 194 0.9 1.7 0.00 0.00 0.00 1016.7
20260903152855 0 211 1.7 1.7 0.00 0.00 0.00 1016.8
20260903152350 0 213 1.7 3.5 0.00 0.00 0.00 1016.8
20260903151846 0 250 3.5 4.3 0.00 0.00 0.00 1016.6
20260903151341 0 209 2.6 3.5 0.00 0.00 0.00 1016.6
20260903150840 0 243 1.7 2.6 0.00 0.00 0.00 1016.7
20260903150335 0 217 0.0 3.5 0.00 0.00 0.00 1016.8
20260903145830 0 232 3.5 5.2 0.00 0.00 0.00 1016.7
20260903145326 0 194 0.9 3.5 0.00 0.00 0.00 1016.8
20260903144825 0 255 3.5 4.3 0.00 0.00 0.00 1016.8
20260903144320 0 228 1.7 2.6 0.00 0.00 0.00 1016.8
20260903143815 0 209 2.6 2.6 0.00 0.00 0.00 1016.7
20260903143312 0 228 2.6 4.3 0.00 0.00 0.00 1016.6
20260903142808 0 213 2.6 2.6 0.00 0.00 0.00 1016.8
20260903142306 0 213 2.6 2.6 0.00 0.00 0.00 1016.6
20260903141759 0 215 2.6 4.3 0.00 0.00 0.00 1016.8
20260903141255 0 229 1.7 2.6 0.00 0.00 0.00 1016.8
20260903140754 0 279 2.6 2.6 0.00 0.00 0.00 1016.6
20260903140250 0 227 1.7 2.6 0.00 0.00 0.00 1016.7
20260903135745 0 219 0.0 2.6 0.00 0.00 0.00 1016.9
20260903135240 0 232 1.7 2.6 0.00 0.00 0.00 1016.7
20260903134739 0 193 1.7 2.6 0.00 0.00 0.00 1016.8
20260903134235 0 239 1.7 2.6 0.00 0.00 0.00 1016.9
20260903133732 0 213 1.7 1.7 0.00 0.00 0.00 1016.9
20260903133229 0 213 1.7 1.7 0.00 0.00 0.00 1016.7
20260903132724 0 195 1.7 6.1 0.00 0.00 0.00 1016.7
20260903132223 0 221 0.9 0.9 0.00 0.00 0.00 1016.9
20260903131719 0 221 0.9 0.9 0.00 0.00 0.00 1016.9
20260903131213 0 221 0.9 0.9 0.00 0.00 0.00 1016.9
20260903130708 0 221 0.9 2.6 0.00 0.00 0.00 1016.9
20260903130202 0 217 0.9 1.7 0.00 0.00 0.00 1016.8
20260903125701 0 145 0.0 1.7 0.00 0.00 0.00 1016.7
20260903125156 0 246 0.0 0.9 0.00 0.00 0.00 1016.7
20260903124655 0 220 0.9 1.7 0.00 0.00 0.00 1016.6
20260903124150 0 231 0.0 1.7 0.00 0.00 0.00 1016.3
20260903123649 0 178 1.7 1.7 0.00 0.00 0.00 1016.3
20260903123148 0 178 1.7 1.7 0.00 0.00 0.00 1016.3
20260903122648 0 234 0.9 2.6 0.00 0.00 0.00 1016.3
20260903122143 0 205 1.7 2.6 0.00 0.00 0.00 1016.3
20260903121641 0 198 0.0 2.6 0.00 0.00 0.00 1016.4
20260903121138 0 195 2.6 4.3 0.00 0.00 0.00 1016.4
20260903120636 0 184 0.0 1.7 0.00 0.00 0.00 1016.4
20260903120131 0 230 0.0 0.9 0.00 0.00 0.00 1016.4
20260903115629 0 217 0.9 3.5 0.00 0.00 0.00 1016.3
20260903115125 0 242 0.0 1.7 0.00 0.00 0.00 1016.3
20260903114620 0 152 4.3 7.0 0.00 0.00 0.00 1016.3
20260903114115 0 202 0.9 5.2 0.00 0.00 0.00 1016.3
20260903113610 0 204 1.7 4.3 0.00 0.00 0.00 1016.3
20260903113107 0 200 0.9 6.1 0.00 0.00 0.00 1016.4
20260903112603 0 235 0.0 1.7 0.00 0.00 0.00 1016.4
20260903112103 0 208 0.9 2.6 0.00 0.00 0.00 1016.4
20260903111602 0 212 0.0 1.7 0.00 0.00 0.00 1016.4
20260903111057 0 210 0.9 2.6 0.00 0.00 0.00 1016.4
20260903110553 0 224 0.0 2.6 0.00 0.00 0.00 1016.4
20260903110048 0 195 0.0 2.6 0.00 0.00 0.00 1016.0
20260903105542 0 225 1.7 4.3 0.00 0.00 0.00 1016.0
20260903105032 0 223 1.7 4.3 0.00 0.00 0.00 1016.0
20260903104532 0 188 0.9 1.7 0.00 0.00 0.00 1015.9
20260903104028 0 123 0.9 2.6 0.00 0.00 0.00 1015.9
20260903103523 0 219 1.7 2.6 0.00 0.00 0.00 1015.9
20260903103020 0 229 1.7 2.6 0.00 0.00 0.00 1015.9
20260903102515 0 210 0.9 2.6 0.00 0.00 0.00 1015.9
20260903102014 0 204 0.9 2.6 0.00 0.00 0.00 1015.9
20260903101508 0 171 0.9 2.6 0.00 0.00 0.00 1015.9
20260903101004 0 197 1.7 3.5 0.00 0.00 0.00 1015.9
20260903100458 0 213 0.0 3.5 0.00 0.00 0.00 1015.9
20260903095956 0 248 0.9 3.5 0.00 0.00 0.00 1015.9
20260903095450 0 211 1.7 2.6 0.00 0.00 0.00 1015.9
20260903094945 0 199 1.7 2.6 0.00 0.00 0.00 1015.9
20260903094445 0 215 1.7 1.7 0.00 0.00 0.00 1015.9
20260903093941 0 224 1.7 2.6 0.00 0.00 0.00 1015.9
20260903093436 0 205 1.7 2.6 0.00 0.00 0.00 1015.9
20260903092931 0 255 0.9 3.5 0.00 0.00 0.00 1016.1